Regional Weather Roundup
Issued by NWS New Orleans/Baton Rouge, LA

Home | Current Version | Previous Version | Text Only | Print | Product List | Glossary On
Versions: 1 2 3 4 5 6 7 8 9 10 11 12 13 14 15 16 17 18 19 20 21 22 23 24 25 26 27 28 29 30 31 32 33 34 35 36 37 38 39 40 41 42 43 44 45 46 47 48 49 50
000
ASUS44 KLIX 211310
RWRLIX
NEW ORLEANS REGIONAL WEATHER ROUNDUP
NATIONAL WEATHER SERVICE NEW ORLEANS LA
700 AM CST SUN DEC 21 2014

NOTE: "FAIR" INDICATES FEW OR NO CLOUDS BELOW 12,000 FEET WITH NO
      SIGNIFICANT WEATHER AND/OR OBSTRUCTIONS TO VISIBILITY.
      SKY/WX - SKY CONDITION AND SIGNIFICANT WEATHER.
      TMP - AIR TEMPERATURE.     DP    - DEWPOINT TEMPERATURE.
      RH  - RELATIVE HUMIDITY.   PRES  - PRESSURE.
      HI  - HEAT INDEX.          WCI   - WIND CHILL INDEX.

*  THESE STATIONS ARE NOT NWS OR FAA STATIONS AND ARE NOT UNDER
   NWS QUALITY CONTROL.

LAZ038-040-048-061>063-065>067-069-211400-
SOUTHEAST LOUISIANA

CITY           SKY/WX    TMP DP  RH WIND       PRES   REMARKS
N.O. AUDUBON     N/A     52  49  90 MISG        N/A
N.O. INTL ARPT CLOUDY    52  47  83 E6        30.11R
N.O. LAKEFRONT CLOUDY    53  47  79 E8        30.11S
N.O. DOWNTOWN*   N/A     52  45  76 NE6       30.11S
SLIDELL        CLOUDY    49  46  90 N3        30.10S
BATON ROUGE    CLOUDY    47  44  90 NE5       30.12S
BOOTHVILLE     CLOUDY    55  53  93 NE6       30.09S
BELLE CHASSE   CLOUDY    52  48  86 NE6       30.10S
BOGALUSA*        N/A     46  43  87 N3        30.13F
GALLIANO*      CLOUDY    55  51  88 MISG      30.11R
NEW ROADS*     CLOUDY    46  44  92 CALM      30.13R
GONZALES*      CLOUDY    49  49 100 CALM      30.11S
HAMMOND*       NOT AVBL
HOUMA*         CLOUDY    52  48  87 N9        30.11R FOG
PORT FOURCHON* CLOUDY    55  52  88 NE10      30.13R

$$

MSZ070-080>082-211400-
SOUTHERN MISSISSIPPI

CITY           SKY/WX    TMP DP  RH WIND       PRES   REMARKS
MCCOMB         MOCLDY    42  38  85 NE5       30.13R
GULFPORT       CLOUDY    50  46  86 NE6       30.10S
BILOXI         NOT AVBL
PASCAGOULA     CLOUDY    50  48  93 NE5       30.10F

$$

COASTAL OBSERVATIONS
LAKE AND NEARSHORE STATIONS

STATION/POSITION TIME  TEMP    WIND        PRES    WAVE
                       AIR SEA DIR/SP/G            HT/PER
                 (UTC) (F)     (DEG/KT/KT) (MB)    (FT/S)
PASCAGOULA       1300   51      20/  6/  9 1018.8
WAVELAND YACHT   1300   51      40/  8/  9 1018.3
GRAND ISLE       1300   54 60   50/  7/ 12 1019.2
SOUTHWEST PASS   1300   56                 1018.7
NEW CANAL        1300   52 55   CALM  /  1 1019.9
SHELL BEACH      1300   52 56   50/ 10/ 12 1019.2

OFFSHORE STATIONS

STATION/POSITION TIME  TEMP    WIND        PRES    WAVE
                       AIR SEA DIR/SP/G            HT/PER
                 (UTC) (F)     (DEG/KT/KT) (MB)    (FT/S)
64 S DAUPHIN ISL 1300   64 74   40/ 16/ 17 1017.4    5/ 6

$$



USA.gov is the U.S. government's official web portal to all federal, state and local government web resources and services.